Weather History for West Palm Beach, FL

Change the Weather History Date:

Tuesday, June 25, 2013

  Actual Average Record
Temperature  
Mean Temperature 86 °F 82 °F  
Max Temperature 90 °F 89 °F 98 °F (1944)
Min Temperature 81 °F 75 °F 66 °F (1940)
Degree Days  
Heating Degree Days 0 0  
Month to date heating degree days 0 0  
Since 1 June heating degree days 0 0  
Since 1 July heating degree days 164 233  
Cooling Degree Days 21 17  
Month to date cooling degree days 398 407  
Year to date cooling degree days 1583 1516  
Since 1 June cooling degree days 398 407  
Growing Degree Days 36 (Base 50)    
Moisture  
Dew Point 72 °F    
Average Humidity 65    
Maximum Humidity 74    
Minimum Humidity 56    
Precipitation  
Precipitation T in 0.27 in 2.45 in (1907)
Month to date precipitation 6.76 6.95  
Year to date precipitation 31.71 25.66  
Snow  
Snow 0.00 in - - ()
Month to date snowfall 0.0  
Since 1 June snowfall 0.0  
Since 1 July snowfall 0.0  
Snow Depth 0.00 in    
Sea Level Pressure  
Sea Level Pressure 30.09 in    
Wind  
Wind Speed 12 mph (ESE)    
Max Wind Speed 20 mph    
Max Gust Speed 25 mph    
Visibility 10 miles    
Events      
T = Trace of Precipitation, MM = Missing Value Source: NWS Daily Summary

Daily Weather History Graph

Daily Weather History Graph

Search for Another Location

Airport:

Trip Planner

Search our weather history database for the weather conditions in past years. The results will help you decide how hot, cold, wet, or windy it might be!

Date:

Astronomy

Jun. 25, 2013 Rise Set
Actual Time 6:28 AM EDT 8:17 PM EDT
Civil Twilight 6:02 AM EDT 8:43 PM EDT
Nautical Twilight 5:30 AM EDT 9:15 PM EDT
Astronomical Twilight 4:57 AM EDT 9:48 PM EDT
Moon 10:19 PM EDT (6/25) 8:52 AM EDT (6/25)
Length of Visible Light 14h 41m
Length of Day
13h 48m
Waning Gibbous, 93% of the Moon is Illuminated
Jun 25
Waning Gibbous
Jun 30
Last Quarter
Jul 8
New
Jul 15
First Quarter
Jul 22
Full

Hourly Weather History & Observations

Time (EDT) Temp. Heat Index Dew Point Humidity Pressure Visibility Wind Dir Wind Speed Gust Speed Precip Events Conditions
12:53 AM 82.9 °F 86.5 °F 69.1 °F 63% 30.14 in 10.0 mi ESE 9.2 mph - N/A   Scattered Clouds
1:53 AM 82.9 °F 87.5 °F 71.1 °F 67% 30.12 in 10.0 mi East 11.5 mph - N/A   Scattered Clouds
2:53 AM 82.9 °F 87.5 °F 71.1 °F 67% 30.11 in 10.0 mi East 10.4 mph - N/A   Scattered Clouds
3:53 AM 82.0 °F 86.3 °F 71.1 °F 69% 30.08 in 10.0 mi East 10.4 mph - N/A   Partly Cloudy
4:53 AM 82.0 °F 86.7 °F 72.0 °F 71% 30.08 in 10.0 mi East 11.5 mph - N/A   Partly Cloudy
5:53 AM 82.0 °F 86.3 °F 71.1 °F 69% 30.07 in 10.0 mi East 11.5 mph - N/A   Partly Cloudy
6:53 AM 82.0 °F 86.3 °F 71.1 °F 69% 30.08 in 10.0 mi East 11.5 mph - N/A   Scattered Clouds
7:53 AM 84.0 °F 89.0 °F 71.1 °F 65% 30.08 in 10.0 mi East 12.7 mph - N/A   Scattered Clouds
8:53 AM 84.9 °F 90.7 °F 72.0 °F 65% 30.10 in 10.0 mi ESE 12.7 mph - N/A   Scattered Clouds
9:45 AM 84.2 °F 89.6 °F 71.6 °F 66% 30.11 in 10.0 mi ESE 10.4 mph - N/A   Mostly Cloudy
9:53 AM 84.9 °F 90.7 °F 72.0 °F 65% 30.11 in 10.0 mi ESE 12.7 mph - N/A   Mostly Cloudy
10:53 AM 87.1 °F 92.8 °F 71.1 °F 59% 30.12 in 10.0 mi SE 11.5 mph 19.6 mph N/A   Mostly Cloudy
11:53 AM 87.1 °F 94.5 °F 73.0 °F 63% 30.12 in 10.0 mi SE 13.8 mph - N/A   Mostly Cloudy
12:41 PM 87.8 °F 93.8 °F 71.6 °F 58% 30.11 in 10.0 mi East 12.7 mph - N/A   Mostly Cloudy
12:53 PM 88.0 °F 94.7 °F 72.0 °F 59% 30.12 in 10.0 mi SE 12.7 mph - N/A   Mostly Cloudy
1:53 PM 89.1 °F 97.0 °F 73.0 °F 59% 30.10 in 10.0 mi ESE 13.8 mph 19.6 mph N/A   Mostly Cloudy
2:53 PM 89.1 °F 97.0 °F 73.0 °F 59% 30.09 in 10.0 mi ESE 15.0 mph 25.3 mph N/A   Mostly Cloudy
3:53 PM 89.1 °F 96.0 °F 72.0 °F 57% 30.07 in 10.0 mi East 13.8 mph - N/A   Scattered Clouds
4:53 PM 86.0 °F 93.0 °F 73.0 °F 65% 30.06 in 10.0 mi ESE 17.3 mph - N/A   Mostly Cloudy
5:53 PM 84.9 °F 89.4 °F 70.0 °F 61% 30.06 in 10.0 mi SE 16.1 mph 21.9 mph N/A   Mostly Cloudy
6:53 PM 84.0 °F 89.6 °F 72.0 °F 67% 30.06 in 10.0 mi SE 12.7 mph - N/A   Mostly Cloudy
7:53 PM 82.9 °F 87.0 °F 70.0 °F 65% 30.06 in 10.0 mi SE 12.7 mph - N/A   Mostly Cloudy
8:53 PM 82.0 °F 86.3 °F 71.1 °F 69% 30.06 in 10.0 mi SE 8.1 mph - N/A   Mostly Cloudy
9:53 PM 82.9 °F 88.0 °F 72.0 °F 69% 30.07 in 10.0 mi ESE 8.1 mph - N/A   Scattered Clouds
10:53 PM 82.9 °F 88.8 °F 73.0 °F 72% 30.08 in 10.0 mi ESE 9.2 mph - N/A   Scattered Clouds
11:53 PM 82.9 °F 88.0 °F 72.0 °F 69% 30.09 in 10.0 mi ESE 11.5 mph - N/A   Mostly Cloudy